Location: Bacea
(45.9500°N, 22.6667°E)
Time: 02:07:19
(UTC+00:00)

Cosmos 1844 Rocket - Pass Details

Date: 16 October 2021
Orbit: 826 x 843 km, 71.0° (Epoch: 02 December)

Event Time Altitude Azimuth Distance (km) Brightness Sun altitude
Rises 17:55:55 0° 339° (NNW) 3,378 6.3 -24.1°
Reaches altitude 10° 17:58:37 10° 348° (NNW) 2,439 5.4 -24.5°
Enters shadow 18:02:34 31° 30° (NNE) 1,425 3.7 -25.2°
